GW2016 Weather Reports


Display with metric or nautical units.
time (UTC)temp
F
wind
direction
speed
MPH
gust
MPH
rain 1hr
in
rain 24hr
in
rain mn
in
humidity
%
barometer
mb
20260507193105 51 90 3.0 7.0 0.00 0.00 0.00 87 1015.6
20260507192605 52 75 3.0 8.0 0.00 0.00 0.00 87 1015.5
20260507192104 52 71 3.0 10.0 0.00 0.00 0.00 87 1015.5
20260507191604 52 81 3.0 8.0 0.00 0.00 0.00 87 1015.3
20260507191104 52 101 4.0 9.0 0.00 0.00 0.00 87 1015.5
20260507190104 52 75 6.0 10.0 0.00 0.00 0.00 86 1015.2
20260507185604 52 78 5.0 13.0 0.00 0.00 0.00 85 1015.3
20260507185104 53 73 7.0 15.0 0.00 0.00 0.00 85 1015.5
20260507184604 53 68 6.0 13.0 0.00 0.00 0.00 85 1015.3
20260507184104 52 74 5.0 12.0 0.00 0.00 0.00 85 1015.3
20260507183604 53 41 5.0 12.0 0.00 0.00 0.00 84 1015.1
20260507183105 53 87 5.0 12.0 0.00 0.00 0.00 84 1015.2
20260507182105 53 83 5.0 13.0 0.00 0.00 0.00 84 1015.3
20260507181604 53 76 4.0 15.0 0.00 0.00 0.00 83 1015.1
20260507180104 53 61 8.0 17.0 0.00 0.00 0.00 83 1014.9
20260507175604 53 77 9.0 17.0 0.00 0.00 0.00 83 1015.1
20260507175104 54 72 8.0 16.0 0.00 0.00 0.00 83 1015.3
20260507174105 54 83 6.0 22.0 0.00 0.00 0.00 83 1015.1
20260507173605 54 80 6.0 14.0 0.00 0.00 0.00 83 1015.1
20260507173105 54 72 7.0 18.0 0.00 0.00 0.00 83 1015.2
20260507172605 54 69 6.0 17.0 0.00 0.00 0.00 83 1015.4
20260507172104 54 85 7.0 20.0 0.00 0.00 0.00 83 1015.2
20260507171604 54 64 7.0 18.0 0.00 0.00 0.00 82 1015.2
20260507171104 54 84 6.0 14.0 0.00 0.00 0.00 82 1015.3
20260507170604 54 85 8.0 20.0 0.00 0.00 0.00 82 1015.1
20260507165604 54 81 9.0 21.0 0.00 0.00 0.00 82 1015.2
20260507165105 54 88 8.0 15.0 0.00 0.00 0.00 82 1015.2
20260507164605 54 83 7.0 16.0 0.00 0.00 0.00 82 1015.2
20260507164104 54 79 8.0 15.0 0.00 0.00 0.00 82 1015.3
20260507163604 54 87 7.0 16.0 0.00 0.00 0.00 82 1015.3
20260507163104 54 124 6.0 15.0 0.00 0.00 0.00 82 1015.3
20260507162604 54 92 8.0 20.0 0.00 0.00 0.00 82 1015.4
20260507162104 54 95 9.0 20.0 0.00 0.00 0.00 82 1015.2
20260507161104 55 60 8.0 17.0 0.00 0.00 0.00 82 1015.3
20260507160605 54 92 8.0 20.0 0.00 0.00 0.00 82 1015.2
20260507160104 54 99 10.0 24.0 0.00 0.00 0.00 82 1015.3
20260507155604 54 93 5.0 16.0 0.00 0.00 0.00 82 1015.1
20260507155106 54 68 7.0 18.0 0.00 0.00 0.00 82 1015.1
20260507154604 54 85 6.0 21.0 0.00 0.00 0.00 82 1015.3
20260507154105 54 66 9.0 20.0 0.00 0.00 0.00 82 1015.3
20260507153104 54 87 7.0 17.0 0.00 0.00 0.00 82 1015.2
20260507152604 54 63 6.0 23.0 0.00 0.00 0.00 82 1015.2
20260507151604 55 90 7.0 21.0 0.00 0.00 0.00 82 1015.1
20260507150604 55 91 9.0 22.0 0.00 0.00 0.00 81 1015.3
20260507145104 55 86 8.0 23.0 0.00 0.00 0.00 78 1015.2
20260507144604 56 80 9.0 20.0 0.00 0.00 0.00 77 1015.3
20260507144104 56 97 7.0 20.0 0.00 0.00 0.00 77 1015.3
20260507143104 57 71 9.0 23.0 0.00 0.00 0.00 76 1015.3
20260507142604 57 78 8.0 20.0 0.00 0.00 0.00 75 1015.2
20260507142104 57 70 9.0 22.0 0.00 0.00 0.00 76 1015.2
20260507141604 57 85 8.0 17.0 0.00 0.00 0.00 77 1015.5
20260507141104 57 73 9.0 20.0 0.00 0.00 0.00 76 1015.5
20260507140104 57 101 8.0 21.0 0.00 0.00 0.00 76 1015.4
20260507135605 57 80 7.0 24.0 0.00 0.00 0.00 76 1015.5
20260507135104 57 86 6.0 25.0 0.00 0.00 0.00 75 1015.5
20260507134605 57 101 8.0 25.0 0.00 0.00 0.00 75 1015.4
20260507133604 57 80 8.0 18.0 0.00 0.00 0.00 75 1015.5
20260507133104 58 50 9.0 22.0 0.00 0.00 0.00 74 1015.4
20260507132604 58 77 7.0 21.0 0.00 0.00 0.00 73 1015.6
20260507132104 58 91 8.0 21.0 0.00 0.00 0.00 72 1015.7
20260507131105 58 62 7.0 17.0 0.00 0.00 0.00 72 1015.5
20260507130604 58 84 8.0 20.0 0.00 0.00 0.00 73 1015.5
20260507130104 58 96 6.0 24.0 0.00 0.00 0.00 72 1015.6
20260507125604 59 61 7.0 24.0 0.00 0.00 0.00 72 1015.7
20260507125104 58 96 7.0 22.0 0.00 0.00 0.00 73 1015.4
20260507124604 58 90 10.0 29.0 0.00 0.00 0.00 72 1015.6
20260507124104 58 76 7.0 20.0 0.00 0.00 0.00 72 1015.6
20260507123104 58 73 7.0 16.0 0.00 0.00 0.00 73 1015.4
20260507122604 58 61 7.0 17.0 0.00 0.00 0.00 74 1015.6
20260507122104 57 92 9.0 18.0 0.00 0.00 0.00 76 1015.5
20260507121604 56 63 7.0 20.0 0.00 0.00 0.00 76 1015.4
20260507120104 58 56 9.0 18.0 0.00 0.00 0.00 73 1015.6
20260507115604 56 91 7.0 21.0 0.00 0.00 0.00 76 1015.7
20260507114604 56 95 9.0 20.0 0.00 0.00 0.00 75 1015.7
20260507114104 56 73 6.0 14.0 0.00 0.00 0.00 74 1015.6
20260507113604 56 77 7.0 24.0 0.00 0.00 0.00 74 1015.7
20260507113104 56 83 6.0 17.0 0.00 0.00 0.00 74 1015.7
20260507112605 56 68 8.0 16.0 0.00 0.00 0.00 74 1015.6
20260507112105 56 94 7.0 16.0 0.00 0.00 0.00 73 1015.6
20260507111604 57 78 7.0 16.0 0.00 0.00 0.00 73 1015.8
20260507111104 57 108 10.0 20.0 0.00 0.00 0.00 72 1015.5
20260507110604 57 95 7.0 17.0 0.00 0.00 0.00 72 1015.8
20260507110104 57 117 6.0 16.0 0.00 0.00 0.00 73 1015.7
20260507105604 56 90 6.0 20.0 0.00 0.00 0.00 74 1015.9
20260507105105 58 102 7.0 20.0 0.00 0.00 0.00 71 1015.6
20260507104604 57 111 6.0 16.0 0.00 0.00 0.00 72 1015.7
20260507104104 56 109 5.0 16.0 0.00 0.00 0.00 74 1015.7
20260507103604 56 80 7.0 16.0 0.00 0.00 0.00 73 1015.7
20260507103104 57 106 6.0 17.0 0.00 0.00 0.00 72 1015.8
20260507102604 57 120 7.0 18.0 0.00 0.00 0.00 73 1015.9
20260507102105 57 74 7.0 18.0 0.00 0.00 0.00 73 1015.6
20260507101105 57 110 7.0 17.0 0.00 0.00 0.00 71 1015.8
20260507100605 57 82 6.0 16.0 0.00 0.00 0.00 72 1015.7
20260507100104 58 86 6.0 20.0 0.00 0.00 0.00 72 1015.8
20260507095605 58 107 5.0 20.0 0.00 0.00 0.00 72 1015.7
20260507095104 58 96 7.0 16.0 0.00 0.00 0.00 72 1015.7
20260507093604 57 103 6.0 14.0 0.00 0.00 0.00 73 1015.6
20260507093104 56 105 7.0 16.0 0.00 0.00 0.00 73 1015.6
20260507092604 57 104 6.0 20.0 0.00 0.00 0.00 72 1015.6
20260507092104 57 112 6.0 12.0 0.00 0.00 0.00 73 1015.6
20260507091604 56 100 7.0 15.0 0.00 0.00 0.00 73 1015.4
20260507091105 55 79 6.0 16.0 0.00 0.00 0.00 73 1015.4
20260507090604 55 127 6.0 13.0 0.00 0.00 0.00 74 1015.5
20260507090105 55 105 6.0 14.0 0.00 0.00 0.00 74 1015.4
20260507085604 55 95 5.0 15.0 0.00 0.00 0.00 74 1015.4
20260507085104 55 85 6.0 14.0 0.00 0.00 0.00 72 1015.4
20260507084604 55 99 5.0 12.0 0.00 0.00 0.00 73 1015.3
20260507084104 55 89 4.0 12.0 0.00 0.00 0.00 73 1015.4
20260507083604 55 90 5.0 13.0 0.00 0.00 0.00 75 1015.4
20260507083104 54 46 4.0 12.0 0.00 0.00 0.00 76 1015.3
20260507082104 54 79 5.0 9.0 0.00 0.00 0.00 77 1015.3
20260507081104 53 88 5.0 9.0 0.00 0.00 0.00 77 1015.4
20260507080604 53 70 5.0 10.0 0.00 0.00 0.00 78 1015.2
20260507075604 53 73 6.0 12.0 0.00 0.00 0.00 79 1015.4
20260507075104 53 82 5.0 9.0 0.00 0.00 0.00 80 1015.3
20260507074104 52 77 5.0 15.0 0.00 0.00 0.00 81 1015.1
20260507073604 52 34 7.0 17.0 0.00 0.00 0.00 81 1015.1
20260507073104 52 57 6.0 14.0 0.00 0.00 0.00 82 1015.2
20260507072604 52 46 5.0 14.0 0.00 0.00 0.00 83 1015.1
20260507071604 51 53 5.0 14.0 0.00 0.00 0.00 84 1015.2
20260507071104 51 49 5.0 10.0 0.00 0.00 0.00 84 1015.0
20260507070604 51 28 3.0 9.0 0.00 0.00 0.00 84 1015.1
20260507070104 51 71 5.0 17.0 0.00 0.00 0.00 84 1015.1
20260507065604 51 50 6.0 13.0 0.00 0.00 0.00 85 1015.1
20260507064604 50 18 5.0 16.0 0.00 0.00 0.00 85 1015.0
20260507063604 50 74 3.0 12.0 0.00 0.00 0.00 86 1014.9
20260507062603 50 83 5.0 10.0 0.00 0.00 0.00 86 1014.7
20260507062104 50 64 5.0 12.0 0.00 0.00 0.00 86 1014.8
20260507061604 49 96 5.0 15.0 0.00 0.00 0.00 87 1014.9
20260507061104 49 55 6.0 14.0 0.00 0.00 0.00 87 1014.7
20260507060604 49 20 4.0 12.0 0.00 0.00 0.00 87 1014.5
20260507060104 49 53 6.0 15.0 0.00 0.00 0.00 87 1014.6
20260507054604 49 24 6.0 12.0 0.00 0.00 0.00 87 1014.7
20260507054104 49 13 5.0 10.0 0.00 0.00 0.00 87 1014.7
20260507053604 49 52 6.0 10.0 0.00 0.00 0.00 88 1014.7
20260507053104 49 32 5.0 16.0 0.00 0.00 0.00 88 1014.6
20260507052604 49 24 5.0 12.0 0.00 0.00 0.00 88 1014.5
20260507051604 49 0 6.0 14.0 0.00 0.00 0.00 88 1014.5
20260507051104 49 16 8.0 17.0 0.00 0.00 0.00 88 1014.6
20260507050604 49 46 7.0 13.0 0.00 0.00 0.00 88 1014.5
20260507050103 49 31 6.0 13.0 0.00 0.00 0.00 88 1014.3
20260507045604 49 125 5.0 9.0 0.00 0.00 0.00 88 1014.4
20260507045104 48 129 5.0 12.0 0.00 0.00 0.00 88 1014.5
20260507044604 48 63 5.0 10.0 0.00 0.00 0.00 88 1014.3
20260507043604 48 76 4.0 10.0 0.00 0.00 0.00 88 1014.3
20260507043104 48 149 5.0 9.0 0.00 0.00 0.00 88 1014.3
20260507042104 48 37 3.0 9.0 0.00 0.00 0.00 88 1014.1
20260507041604 48 37 3.0 12.0 0.00 0.00 0.00 88 1013.9
20260507041105 49 113 4.0 10.0 0.00 0.00 0.00 88 1014.0
20260507040604 49 21 3.0 13.0 0.00 0.00 0.00 88 1014.0
20260507035604 49 14 7.0 13.0 0.00 0.00 0.00 88 1014.0
20260507035104 49 51 5.0 10.0 0.00 0.00 0.00 88 1014.0
20260507034603 49 52 3.0 9.0 0.00 0.00 0.00 88 1014.0
20260507034104 49 49 5.0 16.0 0.00 0.00 0.00 88 1014.0
20260507033604 48 49 6.0 12.0 0.00 0.00 0.00 88 1014.1
20260507032604 48 111 3.0 10.0 0.00 0.00 0.00 88 1013.9
20260507032103 48 54 3.0 9.0 0.00 0.00 0.00 88 1014.1
20260507031604 48 58 3.0 9.0 0.00 0.00 0.00 88 1014.1
20260507031104 48 18 5.0 9.0 0.00 0.00 0.00 88 1014.0
20260507030604 48 110 5.0 9.0 0.00 0.00 0.00 88 1014.0
20260507030104 48 112 3.0 7.0 0.00 0.00 0.00 88 1013.9
20260507025603 48 125 3.0 7.0 0.00 0.00 0.00 88 1014.0
20260507024104 48 37 2.0 8.0 0.00 0.00 0.00 88 1014.0
20260507023104 48 103 2.0 5.0 0.00 0.00 0.00 88 1013.8
20260507022604 48 130 3.0 9.0 0.00 0.00 0.00 88 1013.9
20260507022104 48 49 3.0 7.0 0.00 0.00 0.00 88 1013.9
20260507021104 48 52 4.0 10.0 0.00 0.00 0.00 88 1013.8
20260507020604 48 48 3.0 7.0 0.00 0.00 0.00 88 1013.9
20260507020104 49 86 3.0 7.0 0.00 0.00 0.00 88 1013.7
20260507015604 49 105 3.0 7.0 0.00 0.00 0.00 88 1013.9
20260507015104 49 131 3.0 7.0 0.00 0.00 0.00 88 1013.7
20260507014604 49 77 3.0 6.0 0.00 0.00 0.00 88 1013.7
20260507014104 49 59 3.0 6.0 0.00 0.00 0.00 88 1013.9
20260507013603 49 60 3.0 6.0 0.00 0.00 0.00 87 1013.8
20260507013104 49 56 1.0 6.0 0.00 0.00 0.00 87 1013.9
20260507012104 49 117 3.0 6.0 0.00 0.00 0.00 87 1013.8
20260507011604 49 112 2.0 7.0 0.00 0.00 0.00 87 1014.0
20260507011104 49 132 3.0 5.0 0.00 0.00 0.00 87 1013.9
20260507010604 49 132 3.0 6.0 0.00 0.00 0.00 87 1014.0
20260507010104 49 134 4.0 6.0 0.00 0.00 0.00 87 1013.8
20260507005603 49 114 2.0 6.0 0.00 0.00 0.00 87 1014.0
20260507005104 49 68 3.0 6.0 0.00 0.00 0.00 86 1013.9
20260507004604 49 88 2.0 6.0 0.00 0.00 0.00 86 1013.8
20260507004104 49 78 3.0 6.0 0.00 0.00 0.00 86 1013.8
20260507003604 49 128 3.0 7.0 0.00 0.00 0.00 86 1013.9
20260507003104 49 98 2.0 6.0 0.00 0.00 0.00 86 1013.9
20260507002604 49 73 1.0 6.0 0.00 0.00 0.00 86 1013.9
20260507002104 49 73 3.0 8.0 0.00 0.00 0.00 86 1013.8
20260507001604 49 71 2.0 9.0 0.00 0.00 0.00 86 1013.8
20260507001104 49 100 3.0 6.0 0.00 0.00 0.00 86 1013.8
20260507000603 49 125 2.0 6.0 0.00 0.00 0.00 86 1013.9
20260507000104 49 129 2.0 6.0 0.00 0.00 0.00 86 1013.7
20260506235604 49 70 4.0 8.0 0.00 0.00 0.00 86 1013.8
20260506235103 49 65 3.0 9.0 0.00 0.00 0.00 86 1013.8
20260506234604 49 104 3.0 9.0 0.00 0.00 0.00 86 1013.7
20260506234103 49 42 3.0 9.0 0.00 0.00 0.00 86 1013.9
20260506233604 49 100 3.0 8.0 0.00 0.00 0.00 86 1013.7
20260506233104 49 44 3.0 9.0 0.00 0.00 0.00 86 1013.8
20260506232604 50 98 4.0 7.0 0.00 0.00 0.00 86 1013.9
20260506232104 50 59 3.0 8.0 0.00 0.00 0.00 86 1013.9
20260506231604 50 120 3.0 8.0 0.00 0.00 0.00 86 1013.7
20260506231106 50 78 2.0 6.0 0.00 0.00 0.00 86 1013.7
20260506230604 50 104 1.0 7.0 0.00 0.00 0.00 86 1013.6
20260506230104 50 67 2.0 7.0 0.00 0.00 0.00 86 1013.7
20260506225604 50 90 4.0 9.0 0.00 0.00 0.00 86 1013.6
20260506225104 50 82 3.0 7.0 0.00 0.00 0.00 86 1013.7
20260506224604 50 67 3.0 6.0 0.00 0.00 0.00 86 1013.6
20260506224104 50 80 2.0 6.0 0.00 0.00 0.00 87 1013.7
20260506223604 50 82 3.0 8.0 0.00 0.00 0.00 87 1013.7
20260506223104 50 62 3.0 8.0 0.00 0.00 0.00 86 1013.7
20260506222604 50 82 3.0 7.0 0.00 0.00 0.00 86 1013.6
20260506222104 50 77 3.0 6.0 0.00 0.00 0.00 86 1013.4
20260506221104 50 96 2.0 8.0 0.00 0.00 0.00 86 1013.6
20260506220104 50 97 5.0 10.0 0.00 0.00 0.00 86 1013.5
20260506215604 50 92 2.0 8.0 0.00 0.00 0.00 86 1013.4
20260506215104 50 89 4.0 9.0 0.00 0.00 0.00 86 1013.3
20260506214604 50 66 3.0 10.0 0.00 0.00 0.00 86 1013.3
20260506214104 50 115 3.0 8.0 0.00 0.00 0.00 86 1013.5
20260506213604 51 69 4.0 8.0 0.00 0.00 0.00 86 1013.4
20260506213103 51 75 5.0 10.0 0.00 0.00 0.00 86 1013.4
20260506212603 51 56 3.0 7.0 0.00 0.00 0.00 86 1013.2
20260506212104 51 58 5.0 9.0 0.00 0.00 0.00 86 1013.3
20260506211604 51 108 4.0 7.0 0.00 0.00 0.00 86 1013.5
20260506211104 51 84 2.0 8.0 0.00 0.00 0.00 86 1013.2
20260506210604 51 88 3.0 6.0 0.00 0.00 0.00 85 1013.3
20260506210104 51 105 3.0 7.0 0.00 0.00 0.00 85 1013.4
20260506205104 51 131 4.0 6.0 0.00 0.00 0.00 85 1013.2
20260506204104 51 83 3.0 7.0 0.00 0.00 0.00 85 1013.2
20260506203104 51 72 2.0 7.0 0.00 0.00 0.00 85 1013.1
20260506202604 51 80 3.0 8.0 0.00 0.00 0.00 84 1013.2
20260506202104 51 70 3.0 8.0 0.00 0.00 0.00 84 1013.2
20260506201604 51 123 3.0 6.0 0.00 0.00 0.00 84 1013.1
20260506201104 51 71 3.0 9.0 0.00 0.00 0.00 83 1013.0
20260506195604 51 52 3.0 10.0 0.00 0.00 0.00 83 1012.9
20260506195104 51 99 3.0 10.0 0.00 0.00 0.00 82 1012.9
20260506194604 52 77 4.0 7.0 0.00 0.00 0.00 82 1012.9
20260506194104 52 118 2.0 7.0 0.00 0.00 0.00 82 1012.6
20260506193604 52 71 3.0 9.0 0.00 0.00 0.00 82 1012.9